Location: Unnamed
(47.6264°N, 122.3366°W)
Time: 13:22:46
(UTC-07:00)

UPPER FREE FLYER - Pass Details

Date: 09 August 2020
Orbit: 571 x 589 km, 97.7° (Epoch: 01 October)

Event Time Altitude Azimuth Distance (km) Brightness Sun altitude
Exits shadow 22:15:25 26° 111° (ESE) 1,162 ? -15.3°
Maximum altitude 22:16:58 35° 69° (ENE) 941 ? -15.5°
Drops below altitude 10° 22:20:42 10° 3° (N) 1,898 ? -16.0°
Sets 22:22:59 0° 355° (N) 2,804 ? -16.2°
